When you browse on this site, cookies collect data to enhance your experience and personalize the content and advertising you see.
Visit our Privacy Policy to learn more. By continuing to use the site, you agree to this use of cookies and data.
  • In Switzerland
  • List of Countries
  • For 7 days
  • Water Temperature
  • Satellite Maps
  • Weather Map
  • Weather Widgets
  • user-avatar
    Login

    Hourly Weather Klagenfurt

    Today, 23 March, Saturday

    Time Temperature Precipitation Wind Pressure Humidity
    00:00 +4°C° 0 mm 1 mps 696 mmHg 70%
    01:00 +5°C° 0 mm 1 mps 696 mmHg 70%
    02:00 +4°C° 0 mm 1 mps 696 mmHg 71%
    03:00 +4°C° 0 mm 1 mps 696 mmHg 73%
    04:00 +4°C° 0 mm 1 mps 696 mmHg 74%
    05:00 +4°C° 0 mm 1 mps 696 mmHg 73%
    06:00 +4°C° 0 mm 1 mps 696 mmHg 72%
    07:00 +5°C° 0 mm 1 mps 696 mmHg 70%
    08:00 +8°C° 0 mm 1 mps 696 mmHg 63%
    09:00 +11°C° 0 mm 1 mps 697 mmHg 56%
    10:00 +14°C° 0 mm 1 mps 697 mmHg 48%
    11:00 +15°C° 0 mm 1 mps 697 mmHg 46%
    12:00 +16°C° 0 mm 1 mps 697 mmHg 43%
    13:00 +18°C° 0 mm 1 mps 697 mmHg 41%
    14:00 +18°C° 0 mm 1 mps 697 mmHg 42%
    15:00 +18°C° 0 mm 1 mps 696 mmHg 44%
    16:00 +16°C° 0 mm 1 mps 696 mmHg 45%
    17:00 +14°C° 0 mm 1 mps 696 mmHg 54%
    18:00 +11°C° 0 mm 1 mps 695 mmHg 64%
    19:00 +8°C° 0 mm 0 mps 695 mmHg 73%
    20:00 +7°C° 0 mm 0 mps 695 mmHg 75%
    21:00 +7°C° 0 mm 0 mps 695 mmHg 77%
    22:00 +6°C° 0 mm 0 mps 695 mmHg 79%
    23:00 +6°C° 0 mm 0 mps 695 mmHg 80%

    Tomorrow, 24 March, Sunday

    Time Temperature Precipitation Wind Pressure Humidity
    00:00 +6°C° 0 mm 0 mps 695 mmHg 81%
    01:00 +6°C° 0 mm 1 mps 695 mmHg 82%
    02:00 +6°C° 0 mm 1 mps 695 mmHg 83%
    03:00 +6°C° 0 mm 1 mps 695 mmHg 83%
    04:00 +6°C° 0 mm 1 mps 694 mmHg 84%
    05:00 +6°C° 0 mm 1 mps 694 mmHg 83%
    06:00 +6°C° 0 mm 1 mps 694 mmHg 82%
    07:00 +6°C° 0 mm 1 mps 694 mmHg 81%
    08:00 +8°C° 0 mm 0 mps 694 mmHg 71%
    09:00 +11°C° 0 mm 0 mps 695 mmHg 62%
    10:00 +14°C° 0 mm 0 mps 695 mmHg 52%
    11:00 +16°C° 0 mm 1 mps 695 mmHg 48%
    12:00 +18°C° 0 mm 1 mps 694 mmHg 44%
    13:00 +19°C° 0 mm 1 mps 694 mmHg 40%
    14:00 +19°C° 0 mm 1 mps 694 mmHg 41%
    15:00 +19°C° 0 mm 1 mps 693 mmHg 42%
    16:00 +18°C° 0 mm 1 mps 692 mmHg 43%
    17:00 +15°C° 0 mm 1 mps 692 mmHg 51%
    18:00 +13°C° 0 mm 1 mps 692 mmHg 59%
    19:00 +11°C° 0 mm 1 mps 691 mmHg 68%
    20:00 +10°C° 0 mm 1 mps 691 mmHg 71%
    21:00 +9°C° 0 mm 1 mps 691 mmHg 74%
    22:00 +9°C° 0 mm 1 mps 691 mmHg 77%
    23:00 +8°C° 0 mm 1 mps 691 mmHg 78%

    Day after tomorrow, 25 March, Monday

    Time Temperature Precipitation Wind Pressure Humidity
    00:00 +8°C° 0 mm 1 mps 691 mmHg 80%
    01:00 +8°C° 0 mm 1 mps 691 mmHg 81%
    02:00 +8°C° 0 mm 1 mps 690 mmHg 82%
    03:00 +8°C° 0 mm 1 mps 690 mmHg 82%
    04:00 +8°C° 0 mm 1 mps 690 mmHg 82%
    05:00 +8°C° 0.1 mm 1 mps 690 mmHg 82%
    06:00 +8°C° 0.1 mm 1 mps 690 mmHg 83%
    07:00 +8°C° 0.1 mm 1 mps 690 mmHg 83%
    08:00 +9°C° 0.4 mm 1 mps 690 mmHg 81%
    09:00 +8°C° 0.4 mm 0 mps 689 mmHg 80%
    10:00 +9°C° 0.4 mm 0 mps 689 mmHg 79%
    11:00 +9°C° 0.5 mm 0 mps 689 mmHg 78%
    12:00 +11°C° 0.5 mm 1 mps 689 mmHg 77%
    13:00 +11°C° 0.5 mm 1 mps 688 mmHg 76%
    14:00 +11°C° 0.5 mm 1 mps 688 mmHg 76%
    15:00 +11°C° 0.5 mm 1 mps 688 mmHg 76%
    16:00 +11°C° 0.5 mm 1 mps 687 mmHg 77%
    17:00 +10°C° 2.9 mm 1 mps 687 mmHg 79%
    18:00 +8°C° 2.9 mm 2 mps 688 mmHg 82%
    19:00 +6°C° 2.9 mm 2 mps 688 mmHg 84%
    20:00 +5°C° 1.3 mm 2 mps 689 mmHg 81%
    21:00 +4°C° 1.3 mm 2 mps 689 mmHg 78%
    22:00 +2°C° 1.3 mm 3 mps 690 mmHg 75%
    23:00 +1°C° 0.1 mm 3 mps 691 mmHg 74%

    26 March, Tuesday

    Time Temperature Precipitation Wind Pressure Humidity
    00:00 +2°C° 0.1 mm 2 mps 691 mmHg 72%
    01:00 +1°C° 0.1 mm 2 mps 692 mmHg 71%
    02:00 +1°C° 0 mm 2 mps 692 mmHg 72%
    03:00 +1°C° 0 mm 2 mps 692 mmHg 74%
    04:00 -1°C° 0 mm 2 mps 693 mmHg 75%
    05:00 -1°C° 0 mm 2 mps 693 mmHg 73%
    06:00 -1°C° 0 mm 2 mps 694 mmHg 71%
    07:00 -1°C° 0 mm 2 mps 694 mmHg 69%
    08:00 0°C° 0 mm 3 mps 695 mmHg 60%
    09:00 +1°C° 0 mm 4 mps 695 mmHg 51%
    10:00 +3°C° 0 mm 4 mps 696 mmHg 42%
    11:00 +4°C° 0 mm 4 mps 696 mmHg 39%
    12:00 +5°C° 0 mm 5 mps 696 mmHg 36%
    13:00 +6°C° 0 mm 5 mps 696 mmHg 33%
    14:00 +6°C° 0 mm 4 mps 696 mmHg 35%
    15:00 +6°C° 0 mm 4 mps 695 mmHg 36%
    16:00 +6°C° 0 mm 4 mps 695 mmHg 37%
    17:00 +4°C° 0 mm 3 mps 695 mmHg 45%
    18:00 +3°C° 0 mm 2 mps 696 mmHg 53%
    19:00 +1°C° 0 mm 2 mps 696 mmHg 60%
    20:00 -1°C° 0 mm 2 mps 696 mmHg 63%
    21:00 -1°C° 0 mm 2 mps 696 mmHg 65%
    22:00 -2°C° 0 mm 2 mps 697 mmHg 67%
    23:00 0°C° 0 mm 1 mps 697 mmHg 69%

    27 March, Wednesday

    Time Temperature Precipitation Wind Pressure Humidity
    00:00 0°C° 0 mm 1 mps 697 mmHg 70%
    01:00 -1°C° 0 mm 1 mps 696 mmHg 72%
    02:00 -1°C° 0 mm 1 mps 696 mmHg 72%
    03:00 -1°C° 0 mm 1 mps 696 mmHg 72%
    04:00 -1°C° 0 mm 1 mps 696 mmHg 72%
    05:00 -1°C° 0 mm 1 mps 696 mmHg 68%
    06:00 0°C° 0 mm 1 mps 696 mmHg 65%
    07:00 +1°C° 0 mm 1 mps 696 mmHg 61%
    08:00 +3°C° 0 mm 1 mps 697 mmHg 52%
    09:00 +6°C° 0 mm 1 mps 697 mmHg 43%
    10:00 +8°C° 0 mm 1 mps 698 mmHg 34%
    11:00 +9°C° 0 mm 1 mps 697 mmHg 34%
    12:00 +10°C° 0 mm 1 mps 697 mmHg 34%
    13:00 +11°C° 0 mm 1 mps 697 mmHg 33%
    14:00 +9°C° 0 mm 2 mps 697 mmHg 36%
    15:00 +9°C° 0 mm 2 mps 696 mmHg 39%
    16:00 +8°C° 0 mm 2 mps 696 mmHg 42%
    17:00 +6°C° 0 mm 2 mps 696 mmHg 52%
    18:00 +6°C° 0 mm 1 mps 696 mmHg 62%
    19:00 +4°C° 0 mm 1 mps 696 mmHg 71%
    20:00 +3°C° 0 mm 1 mps 696 mmHg 74%
    21:00 +2°C° 0 mm 0 mps 696 mmHg 77%
    22:00 +1°C° 0 mm 0 mps 697 mmHg 80%
    23:00 +1°C° 0.1 mm 0 mps 697 mmHg 81%

    28 March, Thursday

    Time Temperature Precipitation Wind Pressure Humidity
    00:00 +1°C° 0.1 mm 0 mps 697 mmHg 82%
    01:00 +1°C° 0.1 mm 0 mps 697 mmHg 83%
    02:00 0°C° 0 mm 0 mps 697 mmHg 85%
    03:00 0°C° 0 mm 0 mps 697 mmHg 87%
    04:00 +1°C° 0 mm 1 mps 696 mmHg 88%
    05:00 +1°C° 0.1 mm 1 mps 697 mmHg 86%
    06:00 +2°C° 0.1 mm 1 mps 697 mmHg 83%
    07:00 +2°C° 0.1 mm 1 mps 697 mmHg 81%
    08:00 +4°C° 0.1 mm 1 mps 698 mmHg 74%
    09:00 +5°C° 0.1 mm 1 mps 698 mmHg 68%
    10:00 +7°C° 0.1 mm 1 mps 698 mmHg 62%
    11:00 +7°C° 0.1 mm 2 mps 698 mmHg 58%
    12:00 +7°C° 0.1 mm 2 mps 698 mmHg 55%
    13:00 +8°C° 0.1 mm 2 mps 698 mmHg 52%
    14:00 +8°C° 0.1 mm 2 mps 698 mmHg 53%
    15:00 +8°C° 0.1 mm 2 mps 698 mmHg 54%
    16:00 +8°C° 0.1 mm 2 mps 698 mmHg 55%
    17:00 +6°C° 0 mm 2 mps 698 mmHg 63%
    18:00 +5°C° 0 mm 1 mps 698 mmHg 71%
    19:00 +4°C° 0 mm 1 mps 698 mmHg 79%
    20:00 +3°C° 0 mm 1 mps 698 mmHg 80%
    21:00 +3°C° 0 mm 1 mps 698 mmHg 82%
    22:00 +2°C° 0 mm 1 mps 699 mmHg 84%
    23:00 +2°C° 0 mm 1 mps 699 mmHg 85%
    Show more